Tracking 35051 objects as of 17-Aug-2026
HD Live streaming from Space Station
objects crossing your sky now

STARLINK-38068

Track STARLINK-38068 now!
10-day predictions
STARLINK-38068 is classified as:


NORAD ID: 69984
Int'l Code: 2026-159K
Launch date: July 11, 2026
Source: United States (US)
Launch site: AIR FORCE WESTERN TEST RANGE (AFWTR)
Your satellite tracking list
Your tracking list is empty




NASA's NSSDC Master Catalog

Two Line Element Set (TLE):
1 69984U 26159K   26229.56039006  .00139411  00000-0  92074-3 0  9993
2 69984  97.2847  69.9983 0001167  24.6264 335.5057 15.75180706  7126
Source of the keplerian elements: AFSPC